When you browse on this site, cookies collect data to enhance your experience and personalize the content and advertising you see.
Visit our Privacy Policy to learn more. By continuing to use the site, you agree to this use of cookies and data.
  • In Schweiz
  • Länderverzeichnis
  • Für 7 Tage
  • Wassertemperatur
  • Satellitenkarten
  • Wetterkarte
  • Widgets
  • user-avatar
    Anmelden

    Stündliche Wetter Tovsti Rohy

    Heute, 17 Juli, Mittwoch

    Zeit Temperatur Niederschläge Wind Luftdruck Luftfeuchtigkeit
    00:00 +15°C° 0 mm 2 m/S 736 mmHg 76%
    01:00 +15°C° 0 mm 2 m/S 736 mmHg 78%
    02:00 +14°C° 0 mm 2 m/S 736 mmHg 80%
    03:00 +13°C° 0 mm 3 m/S 736 mmHg 81%
    04:00 +13°C° 0 mm 3 m/S 736 mmHg 82%
    05:00 +13°C° 0 mm 3 m/S 736 mmHg 84%
    06:00 +14°C° 0 mm 4 m/S 736 mmHg 81%
    07:00 +17°C° 0 mm 4 m/S 736 mmHg 78%
    08:00 +18°C° 0 mm 4 m/S 736 mmHg 76%
    09:00 +18°C° 0.2 mm 4 m/S 736 mmHg 76%
    10:00 +18°C° 0.2 mm 4 m/S 736 mmHg 76%
    11:00 +17°C° 0.2 mm 3 m/S 736 mmHg 76%
    12:00 +19°C° 0 mm 4 m/S 736 mmHg 69%
    13:00 +21°C° 0 mm 4 m/S 736 mmHg 61%
    14:00 +22°C° 0 mm 4 m/S 736 mmHg 54%
    15:00 +22°C° 0 mm 4 m/S 736 mmHg 57%
    16:00 +22°C° 0 mm 4 m/S 736 mmHg 59%
    17:00 +21°C° 0 mm 4 m/S 736 mmHg 62%
    18:00 +20°C° 0.1 mm 4 m/S 735 mmHg 69%
    19:00 +18°C° 0.1 mm 3 m/S 735 mmHg 76%
    20:00 +17°C° 0.1 mm 3 m/S 735 mmHg 83%
    21:00 +16°C° 0 mm 3 m/S 735 mmHg 86%
    22:00 +14°C° 0 mm 3 m/S 736 mmHg 89%
    23:00 +13°C° 0 mm 3 m/S 736 mmHg 92%

    Morgen, 18 Juli, Donnerstag

    Zeit Temperatur Niederschläge Wind Luftdruck Luftfeuchtigkeit
    00:00 +13°C° 0 mm 3 m/S 736 mmHg 93%
    01:00 +12°C° 0 mm 3 m/S 736 mmHg 94%
    02:00 +12°C° 0 mm 3 m/S 736 mmHg 95%
    03:00 +11°C° 0 mm 3 m/S 736 mmHg 95%
    04:00 +11°C° 0 mm 3 m/S 736 mmHg 95%
    05:00 +11°C° 0 mm 3 m/S 736 mmHg 95%
    06:00 +13°C° 0 mm 3 m/S 736 mmHg 89%
    07:00 +14°C° 0 mm 4 m/S 737 mmHg 83%
    08:00 +17°C° 0 mm 4 m/S 737 mmHg 77%
    09:00 +18°C° 0 mm 4 m/S 737 mmHg 71%
    10:00 +20°C° 0 mm 4 m/S 737 mmHg 66%
    11:00 +21°C° 0 mm 5 m/S 737 mmHg 60%
    12:00 +21°C° 0 mm 5 m/S 737 mmHg 58%
    13:00 +22°C° 0 mm 5 m/S 737 mmHg 57%
    14:00 +23°C° 0 mm 5 m/S 737 mmHg 55%
    15:00 +22°C° 0.1 mm 5 m/S 738 mmHg 57%
    16:00 +22°C° 0.1 mm 5 m/S 738 mmHg 60%
    17:00 +22°C° 0.1 mm 5 m/S 738 mmHg 62%
    18:00 +20°C° 0.1 mm 4 m/S 738 mmHg 70%
    19:00 +18°C° 0.1 mm 3 m/S 738 mmHg 77%
    20:00 +17°C° 0.1 mm 3 m/S 738 mmHg 84%
    21:00 +16°C° 0 mm 3 m/S 739 mmHg 87%
    22:00 +16°C° 0 mm 3 m/S 739 mmHg 89%
    23:00 +15°C° 0 mm 2 m/S 739 mmHg 92%

    übermorgen, 19 Juli, Freitag

    Zeit Temperatur Niederschläge Wind Luftdruck Luftfeuchtigkeit
    00:00 +14°C° 0 mm 2 m/S 739 mmHg 92%
    01:00 +14°C° 0 mm 2 m/S 740 mmHg 93%
    02:00 +14°C° 0 mm 2 m/S 740 mmHg 93%
    03:00 +14°C° 0 mm 2 m/S 740 mmHg 93%
    04:00 +14°C° 0 mm 2 m/S 740 mmHg 93%
    05:00 +14°C° 0 mm 2 m/S 740 mmHg 93%
    06:00 +15°C° 0 mm 2 m/S 740 mmHg 87%
    07:00 +17°C° 0 mm 3 m/S 741 mmHg 80%
    08:00 +19°C° 0 mm 3 m/S 741 mmHg 74%
    09:00 +21°C° 0 mm 3 m/S 741 mmHg 67%
    10:00 +22°C° 0 mm 3 m/S 741 mmHg 60%
    11:00 +24°C° 0 mm 3 m/S 741 mmHg 53%
    12:00 +25°C° 0 mm 3 m/S 741 mmHg 51%
    13:00 +25°C° 0 mm 3 m/S 741 mmHg 49%
    14:00 +26°C° 0 mm 3 m/S 741 mmHg 47%
    15:00 +26°C° 0 mm 3 m/S 741 mmHg 49%
    16:00 +26°C° 0 mm 3 m/S 741 mmHg 51%
    17:00 +25°C° 0 mm 3 m/S 741 mmHg 53%
    18:00 +24°C° 0 mm 2 m/S 741 mmHg 59%
    19:00 +21°C° 0 mm 2 m/S 741 mmHg 65%
    20:00 +20°C° 0 mm 1 m/S 742 mmHg 71%
    21:00 +19°C° 0 mm 1 m/S 742 mmHg 73%
    22:00 +19°C° 0 mm 1 m/S 742 mmHg 76%
    23:00 +16°C° 0 mm 0 m/S 742 mmHg 78%

    20 Juli, Samstag

    Zeit Temperatur Niederschläge Wind Luftdruck Luftfeuchtigkeit
    00:00 +18°C° 0 mm 1 m/S 742 mmHg 78%
    01:00 +18°C° 0 mm 1 m/S 742 mmHg 79%
    02:00 +16°C° 0 mm 1 m/S 742 mmHg 79%
    03:00 +16°C° 0 mm 1 m/S 742 mmHg 80%
    04:00 +16°C° 0 mm 1 m/S 742 mmHg 81%
    05:00 +16°C° 0 mm 1 m/S 742 mmHg 82%
    06:00 +19°C° 0 mm 1 m/S 742 mmHg 77%
    07:00 +21°C° 0 mm 1 m/S 743 mmHg 71%
    08:00 +23°C° 0 mm 1 m/S 743 mmHg 65%
    09:00 +24°C° 0.1 mm 2 m/S 743 mmHg 63%
    10:00 +25°C° 0.1 mm 2 m/S 743 mmHg 60%
    11:00 +26°C° 0.1 mm 2 m/S 743 mmHg 58%
    12:00 +27°C° 0.3 mm 2 m/S 743 mmHg 54%
    13:00 +28°C° 0.3 mm 2 m/S 743 mmHg 51%
    14:00 +28°C° 0.3 mm 2 m/S 743 mmHg 47%
    15:00 +28°C° 0 mm 2 m/S 743 mmHg 48%
    16:00 +28°C° 0 mm 1 m/S 743 mmHg 49%
    17:00 +28°C° 0 mm 1 m/S 743 mmHg 49%
    18:00 +26°C° 0.1 mm 1 m/S 743 mmHg 56%
    19:00 +24°C° 0.1 mm 1 m/S 743 mmHg 63%
    20:00 +21°C° 0.1 mm 2 m/S 743 mmHg 70%
    21:00 +21°C° 0.4 mm 1 m/S 743 mmHg 75%
    22:00 +20°C° 0.4 mm 1 m/S 743 mmHg 81%
    23:00 +19°C° 0.4 mm 1 m/S 743 mmHg 87%

    21 Juli, Sonntag

    Zeit Temperatur Niederschläge Wind Luftdruck Luftfeuchtigkeit
    00:00 +19°C° 0.1 mm 1 m/S 743 mmHg 88%
    01:00 +18°C° 0.1 mm 1 m/S 743 mmHg 89%
    02:00 +18°C° 0.1 mm 1 m/S 743 mmHg 90%
    03:00 +18°C° 0 mm 1 m/S 743 mmHg 91%
    04:00 +18°C° 0 mm 1 m/S 743 mmHg 91%
    05:00 +18°C° 0 mm 1 m/S 743 mmHg 91%
    06:00 +20°C° 0 mm 1 m/S 743 mmHg 85%
    07:00 +20°C° 0 mm 0 m/S 743 mmHg 78%
    08:00 +22°C° 0 mm 0 m/S 743 mmHg 72%
    09:00 +23°C° 0 mm 0 m/S 744 mmHg 66%
    10:00 +27°C° 0 mm 1 m/S 744 mmHg 60%
    11:00 +28°C° 0 mm 1 m/S 744 mmHg 54%
    12:00 +29°C° 0 mm 1 m/S 744 mmHg 52%
    13:00 +29°C° 0 mm 1 m/S 744 mmHg 49%
    14:00 +30°C° 0 mm 2 m/S 743 mmHg 47%
    15:00 +29°C° 0 mm 2 m/S 743 mmHg 49%
    16:00 +29°C° 0 mm 1 m/S 743 mmHg 52%
    17:00 +29°C° 0 mm 1 m/S 743 mmHg 55%
    18:00 +27°C° 0 mm 1 m/S 743 mmHg 59%
    19:00 +26°C° 0 mm 1 m/S 743 mmHg 63%
    20:00 +24°C° 0 mm 1 m/S 743 mmHg 67%
    21:00 +23°C° 0 mm 1 m/S 743 mmHg 68%
    22:00 +23°C° 0 mm 1 m/S 743 mmHg 70%
    23:00 +22°C° 0 mm 1 m/S 743 mmHg 71%

    22 Juli, Montag

    Zeit Temperatur Niederschläge Wind Luftdruck Luftfeuchtigkeit
    00:00 +22°C° 0 mm 1 m/S 743 mmHg 73%
    01:00 +22°C° 0 mm 1 m/S 743 mmHg 74%
    02:00 +21°C° 0 mm 1 m/S 743 mmHg 75%
    03:00 +21°C° 0.1 mm 1 m/S 743 mmHg 76%
    04:00 +21°C° 0.1 mm 1 m/S 743 mmHg 78%
    05:00 +21°C° 0.1 mm 1 m/S 743 mmHg 80%
    06:00 +22°C° 0 mm 1 m/S 743 mmHg 74%
    07:00 +24°C° 0 mm 1 m/S 743 mmHg 68%
    08:00 +26°C° 0 mm 1 m/S 743 mmHg 62%
    09:00 +27°C° 0 mm 2 m/S 743 mmHg 58%
    10:00 +29°C° 0 mm 2 m/S 743 mmHg 54%
    11:00 +30°C° 0 mm 2 m/S 743 mmHg 50%
    12:00 +30°C° 0 mm 2 m/S 743 mmHg 49%
    13:00 +31°C° 0 mm 2 m/S 742 mmHg 49%
    14:00 +31°C° 0 mm 3 m/S 742 mmHg 48%
    15:00 +29°C° 1.2 mm 3 m/S 742 mmHg 59%
    16:00 +27°C° 1.2 mm 3 m/S 741 mmHg 69%
    17:00 +25°C° 1.2 mm 4 m/S 741 mmHg 80%
    18:00 +22°C° 2.1 mm 4 m/S 741 mmHg 83%
    19:00 +21°C° 2.1 mm 3 m/S 741 mmHg 86%
    20:00 +20°C° 2.1 mm 3 m/S 741 mmHg 89%
    21:00 +20°C° 0.6 mm 3 m/S 741 mmHg 89%
    22:00 +20°C° 0.6 mm 2 m/S 741 mmHg 89%
    23:00 +19°C° 0.6 mm 2 m/S 741 mmHg 89%
    Mehr zeigen